Weather in Damietta

Egypt     31°25′40″N   31°48′40″E
temp.,
°C
wind,
m/s
gust,
m/s
humid.,
%
clouds,
%
prec.,
mm/h
press.,
hPa
HPBL,
m
29 june, wed
wed2923:00+26nnw22700 0.0 1009348
02:00+25wnw22710 0.0 1008394
05:00+25w11700 0.0 1008286
08:00+25wsw11640 0.0 1008480
11:00+27nne22580 0.0 1008585
14:00+27n54590 0.0 1007552
17:00+27nnw55610 0.0 1007581
20:00+26nnw34660 0.0 1007492
30 june, thu
thu3023:00+26wnw11660 0.0 1007353
02:00+25w22710 0.0 1007395
05:00+24sw22781 0.0 1007422
08:00+25sw22732 0.0 1007621
11:00+27n43660 0.0 1007615
14:00+27nnw56690 0.0 1007590
17:00+26nnw56700 0.0 1007668
20:00+26nnw45750 0.0 1007648
1 july, fri
fri123:00+25nnw22730 0.0 1008535
02:00+25wnw33730 0.0 1007476
05:00+25wnw33730 0.0 1007514
08:00+26wnw22660 0.0 1008559
11:00+27n32590 0.0 1008511
14:00+27nnw55600 0.0 1007562
17:00+27nnw66670 0.0 1007553
20:00+26nnw45710 0.0 1008491
2 july, sat
sat223:00+26wnw34750 0.0 1008420
02:00+25wnw45800 0.0 1007491
05:00+25w34810 0.0 1007394
08:00+26w23730 0.0 1007434
11:00+27nnw44670 0.0 1007411
14:00+28nnw66660 0.0 1006404
17:00+27nnw67720 0.0 1006389
20:00+26nnw45780 0.0 1007392
3 july, sun
sun323:00+26nw11770 0.0 1007202
02:00+26wnw34780 0.0 1006319
05:00+26wnw34790 0.0 1006324
08:00+27nw22700 0.0 1006330
11:00+28nnw33590 0.0 1006390
14:00+29nnw55600 0.0 1006438
17:00+28nw67710 0.0 1006399
20:00+27nw57780 0.0 1007290